Starlink 30163

operational
NORAD ID: 57309 Int'l Des: 2023-096 Owner: SPXS Country: US Constellation: starlink
LEOCIRCULAR

About Starlink 30163

Description loading...

Live Position

Loading 3D Globe...

Upcoming Passes

Altitude History

Altitude vs Time

uPlot chart will show altitude changes over time

Two-Line Element Set

1 57309U 23096V 25306.50002315 .00454838 00000-0 53822-2 0 9990
2 57309 42.9878 143.3049 0033829 264.5562 25.5896 15.58359619 5959
Epoch: Nov 2, 2025 • Age: 35 hours

Current Status

Altitude 379.8 km
Velocity 7.69 km/s
Sub-Earth Point -43.15°S, 12.42°E
Launch Date Jul 10, 2023
Age 2.3 years
Type internet

Technical Details

Classification Payload
Mass 730.00 kg
Dry Mass 700.00 kg
Total Mass 730.00 kg
Length 0.30 m
Diameter 4.10 m
Span 29.00 m
Shape Box + pan
Manufacturer SPXS
Bus Type Starlink V2M
Phase Status In Orbit
Owner/State SPXS/US

Large Constellations

Loading constellations...